| time (UTC) | temp C | wind direction | speed KPH | gust KPH | rain 1hr cm | rain 24hr cm | rain mn cm | humidity % | barometer mb |
| 20260508070605 | 14 | 329 | 3.2 | 3.2 | 0.00 | 0.00 | 0.00 | 54 | 1014.2 |
| 20260508065600 | 14 | 329 | 0.0 | 1.6 | 0.00 | 0.00 | 0.00 | 58 | 1014.5 |
| 20260508065058 | 14 | 358 | 1.6 | 3.2 | 0.00 | 0.00 | 0.00 | 55 | 1014.2 |
| 20260508064556 | 14 | 290 | 0.0 | 3.2 | 0.00 | 0.00 | 0.00 | 55 | 1014.4 |
| 20260508064053 | 14 | 5 | 3.2 | 3.2 | 0.00 | 0.00 | 0.00 | 53 | 1014.4 |
| 20260508063550 | 15 | 284 | 0.0 | 1.6 | 0.00 | 0.00 | 0.00 | 53 | 1014.4 |
| 20260508063049 | 15 | 355 | 1.6 | 3.2 | 0.00 | 0.00 | 0.00 | 52 | 1014.3 |
| 20260508062546 | 15 | 357 | 1.6 | 4.8 | 0.00 | 0.00 | 0.00 | 51 | 1014.3 |
| 20260508062042 | 15 | 349 | 1.6 | 3.2 | 0.00 | 0.00 | 0.00 | 50 | 1014.2 |
| 20260508061540 | 15 | 345 | 1.6 | 6.4 | 0.00 | 0.00 | 0.00 | 52 | 1014.2 |
| 20260508061036 | 15 | 304 | 1.6 | 6.4 | 0.00 | 0.00 | 0.00 | 51 | 1014.3 |
| 20260508060534 | 15 | 299 | 4.8 | 6.4 | 0.00 | 0.00 | 0.00 | 51 | 1014.3 |
| 20260508060031 | 16 | 314 | 1.6 | 3.2 | 0.00 | 0.00 | 0.00 | 48 | 1013.8 |
| 20260508055526 | 16 | 329 | 1.6 | 11.3 | 0.00 | 0.00 | 0.00 | 47 | 1014.0 |
| 20260508055024 | 15 | 12 | 4.8 | 11.3 | 0.00 | 0.00 | 0.00 | 46 | 1014.0 |
| 20260508054520 | 15 | 312 | 0.0 | 0.0 | 0.00 | 0.00 | 0.00 | 50 | 1013.8 |
| 20260508054017 | 15 | 351 | 8.0 | 12.9 | 0.00 | 0.00 | 0.00 | 49 | 1014.1 |
| 20260508053514 | 14 | 7 | 11.3 | 12.9 | 0.00 | 0.00 | 0.00 | 55 | 1013.8 |
| 20260508053013 | 14 | 284 | 0.0 | 0.0 | 0.00 | 0.00 | 0.00 | 52 | 1013.8 |
| 20260508052509 | 15 | 284 | 0.0 | 0.0 | 0.00 | 0.00 | 0.00 | 50 | 1013.6 |
| 20260508052006 | 15 | 284 | 0.0 | 0.0 | 0.00 | 0.00 | 0.00 | 51 | 1013.4 |
| 20260508051502 | 14 | 294 | 0.0 | 0.0 | 0.00 | 0.00 | 0.00 | 51 | 1013.5 |
| 20260508050957 | 14 | 22 | 0.0 | 0.0 | 0.00 | 0.00 | 0.00 | 55 | 1013.6 |
| 20260508050454 | 15 | 22 | 0.0 | 0.0 | 0.00 | 0.00 | 0.00 | 52 | 1013.7 |
| 20260508045951 | 16 | 21 | 0.0 | 0.0 | 0.00 | 0.00 | 0.00 | 48 | 1013.6 |
| 20260508045448 | 16 | 273 | 1.6 | 3.2 | 0.00 | 0.00 | 0.00 | 43 | 1013.4 |
| 20260508044945 | 16 | 244 | 0.0 | 6.4 | 0.00 | 0.00 | 0.00 | 44 | 1013.6 |
| 20260508044442 | 16 | 265 | 0.0 | 0.0 | 0.00 | 0.00 | 0.00 | 45 | 1013.5 |
| 20260508043937 | 16 | 267 | 0.0 | 1.6 | 0.00 | 0.00 | 0.00 | 44 | 1013.6 |
| 20260508043435 | 16 | 271 | 4.8 | 4.8 | 0.00 | 0.00 | 0.00 | 44 | 1013.7 |
| 20260508042931 | 17 | 266 | 3.2 | 6.4 | 0.00 | 0.00 | 0.00 | 43 | 1013.6 |
| 20260508042430 | 17 | 267 | 4.8 | 9.7 | 0.00 | 0.00 | 0.00 | 38 | 1013.6 |
| 20260508041926 | 17 | 294 | 6.4 | 9.7 | 0.00 | 0.00 | 0.00 | 39 | 1013.4 |
| 20260508041423 | 17 | 268 | 4.8 | 4.8 | 0.00 | 0.00 | 0.00 | 45 | 1013.5 |
| 20260508040919 | 17 | 284 | 3.2 | 6.4 | 0.00 | 0.00 | 0.00 | 43 | 1013.7 |
| 20260508040417 | 16 | 264 | 1.6 | 3.2 | 0.00 | 0.00 | 0.00 | 41 | 1013.5 |
| 20260508035914 | 16 | 238 | 1.6 | 3.2 | 0.00 | 0.00 | 0.00 | 48 | 1013.6 |
| 20260508035411 | 16 | 214 | 0.0 | 0.0 | 0.00 | 0.00 | 0.00 | 42 | 1013.5 |
| 20260508034908 | 16 | 269 | 3.2 | 6.4 | 0.00 | 0.00 | 0.00 | 44 | 1013.6 |
| 20260508034405 | 15 | 286 | 3.2 | 4.8 | 0.00 | 0.00 | 0.00 | 54 | 1013.5 |
| 20260508033902 | 16 | 291 | 1.6 | 3.2 | 0.00 | 0.00 | 0.00 | 50 | 1013.3 |
| 20260508033400 | 15 | 258 | 0.0 | 3.2 | 0.00 | 0.00 | 0.00 | 46 | 1013.5 |
| 20260508032857 | 15 | 281 | 4.8 | 4.8 | 0.00 | 0.00 | 0.00 | 55 | 1013.3 |
| 20260508032354 | 16 | 284 | 3.2 | 3.2 | 0.00 | 0.00 | 0.00 | 46 | 1013.3 |
| 20260508031851 | 15 | 285 | 3.2 | 4.8 | 0.00 | 0.00 | 0.00 | 46 | 1013.1 |
| 20260508031348 | 15 | 285 | 3.2 | 3.2 | 0.00 | 0.00 | 0.00 | 45 | 1013.3 |
| 20260508030844 | 15 | 292 | 4.8 | 4.8 | 0.00 | 0.00 | 0.00 | 51 | 1013.1 |
| 20260508030341 | 15 | 283 | 1.6 | 3.2 | 0.00 | 0.00 | 0.00 | 48 | 1013.1 |
| 20260508025838 | 15 | 270 | 0.0 | 0.0 | 0.00 | 0.00 | 0.00 | 45 | 1012.7 |
| 20260508025335 | 15 | 277 | 3.2 | 4.8 | 0.00 | 0.00 | 0.00 | 47 | 1013.0 |
| 20260508024832 | 15 | 316 | 0.0 | 0.0 | 0.00 | 0.00 | 0.00 | 49 | 1012.9 |
| 20260508024328 | 15 | 313 | 0.0 | 1.6 | 0.00 | 0.00 | 0.00 | 50 | 1012.8 |
| 20260508023826 | 16 | 224 | 0.0 | 0.0 | 0.00 | 0.00 | 0.00 | 40 | 1012.7 |
| 20260508023322 | 17 | 225 | 0.0 | 0.0 | 0.00 | 0.00 | 0.00 | 42 | 1012.8 |
| 20260508022819 | 17 | 201 | 0.0 | 1.6 | 0.00 | 0.00 | 0.00 | 37 | 1012.6 |
| 20260508022315 | 16 | 248 | 0.0 | 1.6 | 0.00 | 0.00 | 0.00 | 41 | 1012.7 |
| 20260508021812 | 16 | 269 | 1.6 | 4.8 | 0.00 | 0.00 | 0.00 | 47 | 1012.4 |
| 20260508021308 | 16 | 283 | 1.6 | 4.8 | 0.00 | 0.00 | 0.00 | 47 | 1012.3 |
| 20260508020804 | 16 | 269 | 0.0 | 0.0 | 0.00 | 0.00 | 0.00 | 49 | 1012.7 |
| 20260508020302 | 17 | 351 | 0.0 | 0.0 | 0.00 | 0.00 | 0.00 | 43 | 1012.4 |
| 20260508015758 | 17 | 66 | 0.0 | 0.0 | 0.00 | 0.00 | 0.00 | 38 | 1012.4 |
| 20260508015256 | 18 | 81 | 0.0 | 0.0 | 0.00 | 0.00 | 0.00 | 39 | 1012.2 |
| 20260508014753 | 18 | 95 | 0.0 | 1.6 | 0.00 | 0.00 | 0.00 | 39 | 1012.3 |
| 20260508014250 | 19 | 129 | 1.6 | 3.2 | 0.00 | 0.00 | 0.00 | 35 | 1012.2 |
| 20260508013745 | 18 | 130 | 0.0 | 0.0 | 0.00 | 0.00 | 0.00 | 36 | 1012.0 |
| 20260508013242 | 19 | 118 | 0.0 | 0.0 | 0.00 | 0.00 | 0.00 | 36 | 1012.0 |
| 20260508012739 | 19 | 90 | 0.0 | 1.6 | 0.00 | 0.00 | 0.00 | 36 | 1012.1 |
| 20260508012236 | 19 | 83 | 1.6 | 4.8 | 0.00 | 0.00 | 0.00 | 37 | 1012.0 |
| 20260508011734 | 20 | 83 | 1.6 | 3.2 | 0.00 | 0.00 | 0.00 | 37 | 1011.9 |
| 20260508011231 | 20 | 96 | 0.0 | 3.2 | 0.00 | 0.00 | 0.00 | 37 | 1011.9 |
| 20260508010728 | 20 | 89 | 3.2 | 4.8 | 0.00 | 0.00 | 0.00 | 35 | 1011.9 |
| 20260508010226 | 20 | 74 | 4.8 | 4.8 | 0.00 | 0.00 | 0.00 | 33 | 1011.9 |
| 20260508005723 | 21 | 81 | 4.8 | 9.7 | 0.00 | 0.00 | 0.00 | 33 | 1012.0 |
| 20260508005220 | 21 | 106 | 9.7 | 12.9 | 0.00 | 0.00 | 0.00 | 31 | 1011.8 |
| 20260508004715 | 21 | 100 | 6.4 | 6.4 | 0.00 | 0.00 | 0.00 | 33 | 1011.9 |
| 20260508004212 | 21 | 65 | 6.4 | 11.3 | 0.00 | 0.00 | 0.00 | 30 | 1012.0 |
| 20260508003708 | 21 | 82 | 8.0 | 9.7 | 0.00 | 0.00 | 0.00 | 30 | 1012.0 |
| 20260508003206 | 21 | 87 | 6.4 | 9.7 | 0.00 | 0.00 | 0.00 | 31 | 1011.8 |
| 20260508002702 | 21 | 111 | 3.2 | 6.4 | 0.00 | 0.00 | 0.00 | 31 | 1012.0 |
| 20260508002200 | 21 | 90 | 8.0 | 9.7 | 0.00 | 0.00 | 0.00 | 28 | 1011.8 |
| 20260508001655 | 22 | 139 | 3.2 | 9.7 | 0.00 | 0.00 | 0.00 | 28 | 1012.0 |
| 20260508001151 | 22 | 65 | 4.8 | 9.7 | 0.00 | 0.00 | 0.00 | 28 | 1012.0 |
| 20260508000648 | 22 | 82 | 6.4 | 9.7 | 0.00 | 0.00 | 0.00 | 29 | 1011.9 |
| 20260508000145 | 22 | 70 | 6.4 | 16.1 | 0.00 | 0.00 | 0.00 | 29 | 1012.0 |
| 20260507235641 | 22 | 70 | 11.3 | 16.1 | 0.00 | 0.00 | 0.00 | 27 | 1011.5 |
| 20260507235139 | 22 | 88 | 14.5 | 17.7 | 0.00 | 0.00 | 0.00 | 28 | 1011.8 |
| 20260507234636 | 22 | 74 | 9.7 | 16.1 | 0.00 | 0.00 | 0.00 | 29 | 1011.8 |
| 20260507234132 | 22 | 63 | 9.7 | 14.5 | 0.00 | 0.00 | 0.00 | 28 | 1011.8 |
| 20260507233629 | 21 | 75 | 8.0 | 16.1 | 0.00 | 0.00 | 0.00 | 30 | 1011.8 |
| 20260507233128 | 22 | 71 | 12.9 | 16.1 | 0.00 | 0.00 | 0.00 | 30 | 1012.0 |
| 20260507232625 | 21 | 80 | 11.3 | 16.1 | 0.00 | 0.00 | 0.00 | 30 | 1012.1 |
| 20260507232121 | 21 | 70 | 6.4 | 12.9 | 0.00 | 0.00 | 0.00 | 32 | 1012.2 |
| 20260507231617 | 21 | 63 | 9.7 | 12.9 | 0.00 | 0.00 | 0.00 | 30 | 1012.2 |
| 20260507231115 | 21 | 52 | 11.3 | 16.1 | 0.00 | 0.00 | 0.00 | 30 | 1012.2 |
| 20260507230611 | 22 | 49 | 9.7 | 12.9 | 0.00 | 0.00 | 0.00 | 30 | 1012.0 |
| 20260507230108 | 22 | 57 | 8.0 | 9.7 | 0.00 | 0.00 | 0.00 | 29 | 1012.0 |
| 20260507225602 | 22 | 78 | 4.8 | 9.7 | 0.00 | 0.00 | 0.00 | 29 | 1012.0 |
| 20260507225100 | 22 | 79 | 4.8 | 6.4 | 0.00 | 0.00 | 0.00 | 28 | 1012.0 |
| 20260507224555 | 22 | 77 | 3.2 | 6.4 | 0.00 | 0.00 | 0.00 | 29 | 1011.9 |
| 20260507224052 | 22 | 56 | 6.4 | 9.7 | 0.00 | 0.00 | 0.00 | 30 | 1011.9 |
| 20260507223548 | 22 | 62 | 4.8 | 6.4 | 0.00 | 0.00 | 0.00 | 29 | 1012.2 |
| 20260507223045 | 22 | 44 | 6.4 | 11.3 | 0.00 | 0.00 | 0.00 | 28 | 1012.1 |
| 20260507222542 | 22 | 19 | 3.2 | 6.4 | 0.00 | 0.00 | 0.00 | 28 | 1012.2 |
| 20260507222039 | 22 | 42 | 9.7 | 12.9 | 0.00 | 0.00 | 0.00 | 29 | 1012.2 |
| 20260507221535 | 23 | 75 | 17.7 | 17.7 | 0.00 | 0.00 | 0.00 | 28 | 1012.2 |
| 20260507221032 | 24 | 296 | 1.6 | 3.2 | 0.00 | 0.00 | 0.00 | 28 | 1012.2 |
| 20260507220529 | 23 | 58 | 1.6 | 4.8 | 0.00 | 0.00 | 0.00 | 29 | 1012.4 |
| 20260507220027 | 22 | 94 | 3.2 | 3.2 | 0.00 | 0.00 | 0.00 | 27 | 1012.4 |
| 20260507215522 | 22 | 199 | 4.8 | 6.4 | 0.00 | 0.00 | 0.00 | 27 | 1012.4 |
| 20260507215021 | 23 | 145 | 8.0 | 11.3 | 0.00 | 0.00 | 0.00 | 27 | 1012.4 |
| 20260507214517 | 24 | 97 | 1.6 | 3.2 | 0.00 | 0.00 | 0.00 | 26 | 1012.7 |
| 20260507214013 | 23 | 142 | 4.8 | 11.3 | 0.00 | 0.00 | 0.00 | 25 | 1012.7 |
| 20260507213510 | 23 | 126 | 4.8 | 9.7 | 0.00 | 0.00 | 0.00 | 26 | 1013.0 |
| 20260507213007 | 23 | 285 | 1.6 | 6.4 | 0.00 | 0.00 | 0.00 | 30 | 1012.9 |
| 20260507212502 | 23 | 218 | 3.2 | 4.8 | 0.00 | 0.00 | 0.00 | 24 | 1013.1 |
| 20260507211959 | 22 | 55 | 4.8 | 6.4 | 0.00 | 0.00 | 0.00 | 28 | 1013.0 |
| 20260507211456 | 22 | 75 | 6.4 | 24.1 | 0.00 | 0.00 | 0.00 | 28 | 1013.1 |
| 20260507210953 | 23 | 99 | 3.2 | 6.4 | 0.00 | 0.00 | 0.00 | 25 | 1013.3 |
| 20260507210450 | 22 | 188 | 0.0 | 9.7 | 0.00 | 0.00 | 0.00 | 25 | 1013.4 |
| 20260507205947 | 22 | 199 | 3.2 | 4.8 | 0.00 | 0.00 | 0.00 | 24 | 1013.5 |
| 20260507205443 | 23 | 109 | 6.4 | 6.4 | 0.00 | 0.00 | 0.00 | 25 | 1013.5 |
| 20260507204939 | 23 | 74 | 1.6 | 3.2 | 0.00 | 0.00 | 0.00 | 27 | 1013.5 |
| 20260507204436 | 22 | 82 | 1.6 | 11.3 | 0.00 | 0.00 | 0.00 | 25 | 1013.8 |
| 20260507203934 | 23 | 346 | 3.2 | 11.3 | 0.00 | 0.00 | 0.00 | 23 | 1013.7 |
| 20260507203432 | 22 | 152 | 3.2 | 14.5 | 0.00 | 0.00 | 0.00 | 21 | 1013.7 |
| 20260507202928 | 22 | 233 | 6.4 | 16.1 | 0.00 | 0.00 | 0.00 | 24 | 1014.1 |
| 20260507202424 | 22 | 230 | 3.2 | 4.8 | 0.00 | 0.00 | 0.00 | 22 | 1014.2 |
| 20260507201920 | 22 | 120 | 1.6 | 9.7 | 0.00 | 0.00 | 0.00 | 24 | 1014.4 |
| 20260507201415 | 23 | 246 | 11.3 | 16.1 | 0.00 | 0.00 | 0.00 | 22 | 1014.4 |
| 20260507200912 | 22 | 97 | 8.0 | 16.1 | 0.00 | 0.00 | 0.00 | 23 | 1014.4 |
| 20260507200408 | 22 | 17 | 1.6 | 4.8 | 0.00 | 0.00 | 0.00 | 25 | 1014.7 |
| 20260507195904 | 22 | 247 | 9.7 | 11.3 | 0.00 | 0.00 | 0.00 | 24 | 1014.5 |
| 20260507195402 | 22 | 238 | 9.7 | 12.9 | 0.00 | 0.00 | 0.00 | 23 | 1014.4 |
| 20260507194859 | 21 | 221 | 1.6 | 9.7 | 0.00 | 0.00 | 0.00 | 25 | 1014.7 |
| 20260507194355 | 21 | 267 | 9.7 | 14.5 | 0.00 | 0.00 | 0.00 | 25 | 1014.7 |
| 20260507193851 | 22 | 252 | 8.0 | 12.9 | 0.00 | 0.00 | 0.00 | 28 | 1014.8 |
| 20260507193349 | 21 | 131 | 3.2 | 4.8 | 0.00 | 0.00 | 0.00 | 25 | 1015.0 |
| 20260507192845 | 21 | 200 | 1.6 | 11.3 | 0.00 | 0.00 | 0.00 | 22 | 1015.1 |
| 20260507192341 | 21 | 254 | 0.0 | 6.4 | 0.00 | 0.00 | 0.00 | 26 | 1015.0 |
| 20260507191838 | 21 | 267 | 9.7 | 14.5 | 0.00 | 0.00 | 0.00 | 25 | 1014.9 |
| 20260507191334 | 22 | 319 | 3.2 | 9.7 | 0.00 | 0.00 | 0.00 | 27 | 1014.9 |
| 20260507190831 | 21 | 140 | 3.2 | 3.2 | 0.00 | 0.00 | 0.00 | 25 | 1014.9 |
| 20260507190329 | 21 | 179 | 1.6 | 4.8 | 0.00 | 0.00 | 0.00 | 27 | 1015.0 |
| 20260507185828 | 21 | 178 | 4.8 | 6.4 | 0.00 | 0.00 | 0.00 | 26 | 1015.2 |
| 20260507185325 | 21 | 168 | 0.0 | 4.8 | 0.00 | 0.00 | 0.00 | 26 | 1015.2 |
| 20260507184822 | 21 | 268 | 3.2 | 12.9 | 0.00 | 0.00 | 0.00 | 26 | 1015.4 |
| 20260507184320 | 21 | 225 | 9.7 | 14.5 | 0.00 | 0.00 | 0.00 | 25 | 1015.5 |
| 20260507183816 | 21 | 282 | 8.0 | 14.5 | 0.00 | 0.00 | 0.00 | 27 | 1015.7 |
| 20260507183313 | 20 | 232 | 9.7 | 11.3 | 0.00 | 0.00 | 0.00 | 27 | 1015.7 |
| 20260507182811 | 20 | 307 | 3.2 | 14.5 | 0.00 | 0.00 | 0.00 | 29 | 1015.8 |
| 20260507182307 | 20 | 229 | 6.4 | 16.1 | 0.00 | 0.00 | 0.00 | 28 | 1015.9 |
| 20260507181803 | 20 | 257 | 6.4 | 12.9 | 0.00 | 0.00 | 0.00 | 30 | 1015.9 |
| 20260507181259 | 20 | 250 | 9.7 | 12.9 | 0.00 | 0.00 | 0.00 | 29 | 1016.1 |
| 20260507180755 | 19 | 216 | 6.4 | 14.5 | 0.00 | 0.00 | 0.00 | 29 | 1016.1 |
| 20260507180253 | 19 | 194 | 14.5 | 17.7 | 0.00 | 0.00 | 0.00 | 29 | 1016.1 |
| 20260507175748 | 18 | 270 | 4.8 | 22.5 | 0.00 | 0.00 | 0.00 | 32 | 1016.4 |
| 20260507175245 | 18 | 283 | 14.5 | 17.7 | 0.00 | 0.00 | 0.00 | 33 | 1016.2 |
| 20260507174742 | 18 | 272 | 11.3 | 17.7 | 0.00 | 0.00 | 0.00 | 30 | 1016.1 |
| 20260507174240 | 18 | 229 | 9.7 | 17.7 | 0.00 | 0.00 | 0.00 | 31 | 1016.4 |
| 20260507173738 | 18 | 248 | 8.0 | 22.5 | 0.00 | 0.00 | 0.00 | 36 | 1016.3 |
| 20260507173235 | 18 | 278 | 17.7 | 25.7 | 0.00 | 0.00 | 0.00 | 34 | 1016.8 |
| 20260507172731 | 18 | 275 | 11.3 | 20.9 | 0.00 | 0.00 | 0.00 | 35 | 1016.5 |
| 20260507172228 | 18 | 214 | 12.9 | 25.7 | 0.00 | 0.00 | 0.00 | 35 | 1016.9 |
| 20260507171728 | 18 | 233 | 20.9 | 25.7 | 0.00 | 0.00 | 0.00 | 35 | 1016.9 |
| 20260507171226 | 18 | 261 | 17.7 | 27.4 | 0.00 | 0.00 | 0.00 | 38 | 1016.8 |
| 20260507170723 | 17 | 297 | 20.9 | 30.6 | 0.00 | 0.00 | 0.00 | 36 | 1017.0 |
| 20260507170220 | 17 | 282 | 32.2 | 33.8 | 0.00 | 0.00 | 0.00 | 34 | 1017.0 |
| 20260507165715 | 17 | 275 | 29.0 | 35.4 | 0.00 | 0.00 | 0.00 | 35 | 1016.9 |
| 20260507165212 | 17 | 271 | 24.1 | 38.6 | 0.00 | 0.00 | 0.00 | 37 | 1016.8 |
| 20260507164708 | 17 | 244 | 29.0 | 35.4 | 0.00 | 0.00 | 0.00 | 36 | 1017.0 |
| 20260507164205 | 16 | 234 | 19.3 | 35.4 | 0.00 | 0.00 | 0.00 | 40 | 1017.0 |
| 20260507163702 | 17 | 272 | 22.5 | 25.7 | 0.00 | 0.00 | 0.00 | 39 | 1017.1 |
| 20260507163200 | 17 | 272 | 19.3 | 27.4 | 0.00 | 0.00 | 0.00 | 41 | 1017.0 |
| 20260507162655 | 17 | 310 | 12.9 | 24.1 | 0.00 | 0.00 | 0.00 | 39 | 1017.1 |
| 20260507162152 | 16 | 212 | 19.3 | 27.4 | 0.00 | 0.00 | 0.00 | 39 | 1017.0 |
| 20260507161648 | 16 | 254 | 24.1 | 29.0 | 0.00 | 0.00 | 0.00 | 39 | 1017.1 |
| 20260507161145 | 16 | 271 | 19.3 | 35.4 | 0.00 | 0.00 | 0.00 | 40 | 1017.1 |
| 20260507160641 | 16 | 263 | 22.5 | 33.8 | 0.00 | 0.00 | 0.00 | 38 | 1017.0 |
| 20260507160138 | 15 | 235 | 19.3 | 27.4 | 0.00 | 0.00 | 0.00 | 43 | 1017.3 |
| 20260507155633 | 15 | 285 | 27.4 | 30.6 | 0.00 | 0.00 | 0.00 | 40 | 1017.2 |
| 20260507155130 | 15 | 261 | 20.9 | 27.4 | 0.00 | 0.00 | 0.00 | 43 | 1017.2 |
| 20260507154627 | 15 | 291 | 24.1 | 38.6 | 0.00 | 0.00 | 0.00 | 43 | 1017.0 |
| 20260507154124 | 15 | 256 | 25.7 | 35.4 | 0.00 | 0.00 | 0.00 | 44 | 1016.9 |
| 20260507153620 | 14 | 272 | 20.9 | 29.0 | 0.00 | 0.00 | 0.00 | 45 | 1017.1 |
| 20260507153117 | 14 | 308 | 25.7 | 30.6 | 0.00 | 0.00 | 0.00 | 44 | 1017.0 |
| 20260507152614 | 13 | 255 | 20.9 | 25.7 | 0.00 | 0.00 | 0.00 | 46 | 1017.0 |
| 20260507152110 | 13 | 282 | 27.4 | 35.4 | 0.00 | 0.00 | 0.00 | 46 | 1017.0 |
| 20260507151606 | 12 | 281 | 22.5 | 37.0 | 0.00 | 0.00 | 0.00 | 48 | 1017.2 |
| 20260507151103 | 12 | 285 | 27.4 | 35.4 | 0.00 | 0.00 | 0.00 | 46 | 1017.2 |
| 20260507150600 | 12 | 283 | 20.9 | 33.8 | 0.00 | 0.00 | 0.00 | 48 | 1017.1 |
| 20260507150057 | 11 | 272 | 16.1 | 33.8 | 0.00 | 0.00 | 0.00 | 48 | 1017.5 |
| 20260507145551 | 11 | 264 | 32.2 | 40.2 | 0.00 | 0.00 | 0.00 | 46 | 1017.5 |
| 20260507145050 | 11 | 224 | 24.1 | 37.0 | 0.00 | 0.00 | 0.00 | 47 | 1017.2 |
| 20260507144546 | 11 | 294 | 19.3 | 30.6 | 0.00 | 0.00 | 0.00 | 49 | 1017.3 |
| 20260507144044 | 10 | 281 | 27.4 | 38.6 | 0.00 | 0.00 | 0.00 | 48 | 1017.5 |
| 20260507143540 | 10 | 303 | 22.5 | 35.4 | 0.00 | 0.00 | 0.00 | 49 | 1017.6 |
| 20260507143038 | 10 | 261 | 22.5 | 46.7 | 0.00 | 0.00 | 0.00 | 48 | 1017.5 |
| 20260507142533 | 10 | 227 | 27.4 | 40.2 | 0.00 | 0.00 | 0.00 | 49 | 1017.6 |
| 20260507142030 | 10 | 280 | 24.1 | 33.8 | 0.00 | 0.00 | 0.00 | 49 | 1017.3 |
| 20260507141526 | 9 | 282 | 19.3 | 33.8 | 0.00 | 0.00 | 0.00 | 51 | 1017.7 |
| 20260507141023 | 9 | 248 | 25.7 | 37.0 | 0.00 | 0.00 | 0.00 | 50 | 1017.6 |
| 20260507140520 | 8 | 233 | 19.3 | 29.0 | 0.00 | 0.00 | 0.00 | 50 | 1017.7 |
| 20260507140018 | 8 | 271 | 27.4 | 41.8 | 0.00 | 0.00 | 0.00 | 50 | 1017.7 |
| 20260507135514 | 8 | 291 | 24.1 | 35.4 | 0.00 | 0.00 | 0.00 | 49 | 1017.7 |
| 20260507135011 | 8 | 283 | 27.4 | 37.0 | 0.00 | 0.00 | 0.00 | 49 | 1017.5 |
| 20260507134508 | 8 | 265 | 30.6 | 37.0 | 0.00 | 0.00 | 0.00 | 49 | 1017.8 |
| 20260507134004 | 8 | 273 | 30.6 | 40.2 | 0.00 | 0.00 | 0.00 | 49 | 1017.7 |
| 20260507133500 | 8 | 277 | 24.1 | 33.8 | 0.00 | 0.00 | 0.00 | 50 | 1017.7 |
| 20260507132958 | 7 | 235 | 35.4 | 37.0 | 0.00 | 0.00 | 0.00 | 52 | 1017.6 |
| 20260507132454 | 7 | 235 | 35.4 | 37.0 | 0.00 | 0.00 | 0.00 | 52 | 1017.5 |
| 20260507131951 | 7 | 284 | 37.0 | 40.2 | 0.00 | 0.00 | 0.00 | 53 | 1017.6 |
| 20260507131448 | 7 | 265 | 24.1 | 30.6 | 0.00 | 0.00 | 0.00 | 55 | 1017.6 |
| 20260507130945 | 7 | 256 | 24.1 | 38.6 | 0.00 | 0.00 | 0.00 | 54 | 1017.6 |
| 20260507130442 | 6 | 286 | 35.4 | 43.5 | 0.00 | 0.00 | 0.00 | 53 | 1017.5 |
| 20260507125941 | 6 | 263 | 27.4 | 40.2 | 0.00 | 0.66 | 0.66 | 53 | 1017.5 |
| 20260507125438 | 6 | 279 | 32.2 | 41.8 | 0.00 | 0.66 | 0.66 | 53 | 1017.3 |
| 20260507124935 | 6 | 283 | 33.8 | 41.8 | 0.00 | 0.66 | 0.66 | 53 | 1017.3 |
| 20260507124431 | 6 | 262 | 24.1 | 37.0 | 0.00 | 0.66 | 0.66 | 54 | 1017.3 |
| 20260507123930 | 6 | 304 | 29.0 | 37.0 | 0.00 | 0.66 | 0.66 | 54 | 1017.5 |
| 20260507123427 | 6 | 271 | 25.7 | 40.2 | 0.00 | 0.66 | 0.66 | 54 | 1017.2 |
| 20260507122923 | 6 | 313 | 30.6 | 40.2 | 0.00 | 0.66 | 0.66 | 53 | 1017.3 |
| 20260507122418 | 6 | 282 | 32.2 | 38.6 | 0.00 | 0.66 | 0.66 | 54 | 1017.2 |
| 20260507121915 | 6 | 268 | 30.6 | 37.0 | 0.00 | 0.66 | 0.66 | 55 | 1017.1 |
| 20260507121410 | 6 | 244 | 24.1 | 40.2 | 0.00 | 0.66 | 0.66 | 55 | 1017.2 |
| 20260507120907 | 6 | 263 | 32.2 | 40.2 | 0.00 | 0.66 | 0.66 | 55 | 1017.3 |
| 20260507120404 | 6 | 272 | 30.6 | 41.8 | 0.00 | 0.66 | 0.66 | 55 | 1017.1 |
| 20260507115900 | 5 | 293 | 32.2 | 41.8 | 0.00 | 0.66 | 0.66 | 56 | 1017.1 |
| 20260507115356 | 5 | 274 | 30.6 | 41.8 | 0.00 | 0.66 | 0.66 | 57 | 1017.2 |
| 20260507114852 | 5 | 272 | 30.6 | 38.6 | 0.00 | 0.66 | 0.66 | 57 | 1017.2 |
| 20260507114349 | 5 | 286 | 27.4 | 37.0 | 0.00 | 0.66 | 0.66 | 58 | 1017.2 |
| 20260507113846 | 5 | 269 | 25.7 | 35.4 | 0.00 | 0.66 | 0.66 | 60 | 1017.2 |
| 20260507113343 | 5 | 273 | 30.6 | 38.6 | 0.00 | 0.66 | 0.66 | 61 | 1017.6 |
| 20260507112841 | 5 | 284 | 24.1 | 35.4 | 0.00 | 0.66 | 0.66 | 62 | 1017.3 |
| 20260507112337 | 5 | 263 | 33.8 | 41.8 | 0.00 | 0.66 | 0.66 | 61 | 1017.3 |
| 20260507111836 | 5 | 278 | 25.7 | 35.4 | 0.00 | 0.66 | 0.66 | 61 | 1017.5 |
| 20260507111332 | 5 | 269 | 27.4 | 38.6 | 0.00 | 0.66 | 0.66 | 61 | 1017.5 |
| 20260507110828 | 5 | 238 | 27.4 | 40.2 | 0.00 | 0.66 | 0.66 | 61 | 1017.5 |
| 20260507110324 | 4 | 276 | 22.5 | 29.0 | 0.00 | 0.66 | 0.66 | 64 | 1017.8 |
| 20260507105821 | 4 | 253 | 16.1 | 24.1 | 0.00 | 0.66 | 0.66 | 66 | 1017.6 |
| 20260507105318 | 5 | 261 | 12.9 | 27.4 | 0.00 | 0.66 | 0.66 | 64 | 1017.7 |
| 20260507104815 | 4 | 230 | 19.3 | 22.5 | 0.00 | 0.66 | 0.66 | 65 | 1017.7 |
| 20260507104311 | 4 | 282 | 9.7 | 17.7 | 0.00 | 0.66 | 0.66 | 65 | 1017.8 |
| 20260507103807 | 4 | 152 | 0.0 | 3.2 | 0.00 | 0.66 | 0.66 | 67 | 1018.2 |
| 20260507103304 | 5 | 259 | 9.7 | 14.5 | 0.00 | 0.66 | 0.66 | 62 | 1017.9 |
| 20260507102800 | 5 | 237 | 16.1 | 29.0 | 0.00 | 0.66 | 0.66 | 63 | 1017.8 |
| 20260507102257 | 2 | 284 | 14.5 | 16.1 | 0.00 | 0.66 | 0.66 | 70 | 1017.8 |
| 20260507101753 | 1 | 285 | 1.6 | 6.4 | 0.00 | 0.66 | 0.66 | 80 | 1018.0 |
| 20260507101248 | 0 | 285 | 0.0 | 1.6 | 0.00 | 0.66 | 0.66 | 86 | 1018.0 |
| 20260507100746 | 1 | 285 | 4.8 | 9.7 | 0.00 | 0.66 | 0.66 | 86 | 1018.4 |
| 20260507100244 | 0 | 285 | 4.8 | 4.8 | 0.00 | 0.66 | 0.66 | 91 | 1018.4 |
| 20260507095742 | 0 | 285 | 0.0 | 0.0 | 0.00 | 0.66 | 0.66 | 91 | 1018.4 |
| 20260507095238 | 0 | 285 | 0.0 | 3.2 | 0.00 | 0.66 | 0.66 | 91 | 1018.4 |
| 20260507094735 | 0 | 285 | 1.6 | 3.2 | 0.00 | 0.66 | 0.66 | 90 | 1018.5 |
| 20260507094232 | 0 | 285 | 0.0 | 3.2 | 0.00 | 0.66 | 0.66 | 89 | 1018.6 |
| 20260507093729 | 0 | 285 | 0.0 | 0.0 | 0.00 | 0.66 | 0.66 | 90 | 1018.6 |
| 20260507093227 | 0 | 285 | 0.0 | 1.6 | 0.00 | 0.66 | 0.66 | 90 | 1018.6 |
| 20260507092725 | 0 | 285 | 0.0 | 0.0 | 0.00 | 0.66 | 0.66 | 89 | 1019.0 |
| 20260507092220 | 0 | 285 | 0.0 | 0.0 | 0.00 | 0.66 | 0.66 | 89 | 1018.9 |
| 20260507091717 | 0 | 285 | 0.0 | 3.2 | 0.00 | 0.66 | 0.66 | 89 | 1019.1 |
| 20260507091214 | 0 | 285 | 0.0 | 3.2 | 0.00 | 0.66 | 0.66 | 89 | 1019.1 |
| 20260507090709 | 1 | 285 | 3.2 | 3.2 | 0.00 | 0.66 | 0.66 | 87 | 1018.9 |
| 20260507090206 | 2 | 285 | 3.2 | 3.2 | 0.00 | 0.66 | 0.66 | 87 | 1018.9 |
| 20260507085703 | 1 | 285 | 4.8 | 4.8 | 0.00 | 0.66 | 0.66 | 90 | 1018.9 |
| 20260507085200 | 1 | 285 | 0.0 | 0.0 | 0.00 | 0.66 | 0.66 | 91 | 1019.0 |
| 20260507084657 | 1 | 285 | 0.0 | 1.6 | 0.00 | 0.66 | 0.66 | 91 | 1018.9 |
| 20260507084153 | 1 | 285 | 3.2 | 4.8 | 0.00 | 0.66 | 0.66 | 91 | 1019.2 |
| 20260507083650 | 1 | 285 | 0.0 | 3.2 | 0.00 | 0.66 | 0.66 | 92 | 1019.0 |
| 20260507083147 | 1 | 285 | 0.0 | 0.0 | 0.00 | 0.66 | 0.66 | 92 | 1019.0 |
| 20260507082643 | 0 | 285 | 0.0 | 3.2 | 0.00 | 0.66 | 0.66 | 92 | 1019.0 |
| 20260507082139 | 0 | 285 | 0.0 | 0.0 | 0.00 | 0.66 | 0.66 | 91 | 1019.1 |
| 20260507081636 | 0 | 285 | 0.0 | 0.0 | 0.00 | 0.66 | 0.66 | 91 | 1019.2 |
| 20260507081132 | 0 | 285 | 0.0 | 0.0 | 0.00 | 0.66 | 0.66 | 91 | 1019.2 |
| 20260507080629 | 0 | 285 | 0.0 | 0.0 | 0.00 | 0.66 | 0.66 | 91 | 1019.3 |
| 20260507080126 | 0 | 285 | 0.0 | 0.0 | 0.00 | 0.66 | 0.66 | 90 | 1019.4 |
| 20260507075625 | 0 | 285 | 0.0 | 0.0 | 0.00 | 0.66 | 0.66 | 90 | 1019.6 |
| 20260507075122 | 1 | 285 | 0.0 | 1.6 | 0.00 | 0.66 | 0.66 | 90 | 1019.4 |
| 20260507074619 | 1 | 285 | 1.6 | 1.6 | 0.00 | 0.66 | 0.66 | 91 | 1019.4 |
| 20260507074118 | 0 | 285 | 3.2 | 3.2 | 0.00 | 0.66 | 0.66 | 91 | 1019.4 |
| 20260507073613 | 0 | 276 | 0.0 | 4.8 | 0.00 | 0.66 | 0.66 | 91 | 1019.3 |
| 20260507073109 | 0 | 288 | 0.0 | 1.6 | 0.00 | 0.66 | 0.66 | 91 | 1019.4 |
| 20260507072607 | 1 | 299 | 0.0 | 3.2 | 0.00 | 0.66 | 0.66 | 91 | 1019.7 |
| 20260507072104 | 0 | 245 | 1.6 | 3.2 | 0.00 | 0.66 | 0.66 | 91 | 1019.7 |
| 20260507071602 | 0 | 265 | 1.6 | 1.6 | 0.00 | 0.66 | 0.66 | 91 | 1019.6 |
| 20260507071058 | 0 | 275 | 0.0 | 0.0 | 0.00 | 0.66 | 0.66 | 91 | 1019.6 |